User: anonymous   Login
Location: Medlow Airstrip Trail, Medlow Bath NSW 2780, Australia
(33.6682°S, 150.3233°E)
Time: 09:34:32
(UTC+11:00)
Language:

N. Korean satellite - Orbit

View from above orbital plane
View from above orbital plane
View from above satellite
View from above satellite

Ground track
Ground track

The orbit data is extracted from the following two-line orbital elements,

1 39026U 12072A   19325.26438759  .00001381  00000-0  52060-4 0  9996
2 39026  97.2159 323.4459 0035939 268.2222  91.4901 15.28184557385352
Epoch (UTC): 21 November 2019 06:20:43
Eccentricity: 0.0035939
inclination: 97.2159°
perigee height: 456 km
apogee height: 506 km
right ascension of ascending node: 323.4459°
argument of perigee: 268.2222°
revolutions per day: 15.28184557
mean anomaly at epoch: 91.4901°
orbit number at epoch: 38535

The dashed part of the orbit path shows where the satellite is in the earth's shadow,  

DLR